Kankakee, IL

2:38 AM CST on December 09, 2019 (GMT -0600)
Greater Kankakee

Weather History for KIKK - October, 2019

Change the Weather History Date:

Monday, October 21, 2019

  Actual Average Record
Temperature  
Mean Temperature 58 °F -  
Max Temperature 68 °F 60 °F 82 °F (2007)
Min Temperature 50 °F 36 °F 24 °F (2018)
Degree Days  
Heating Degree Days 6    
Growing Degree Days 8 (Base 50)    
Moisture  
Dew Point 50 °F    
Average Humidity 75    
Maximum Humidity 97    
Minimum Humidity 48    
Precipitation  
Precipitation 0.03 in - - ()
Sea Level Pressure  
Sea Level Pressure 29.61 in    
Wind  
Wind Speed 13 mph (South)    
Max Wind Speed 33 mph    
Max Gust Speed 52 mph    
Visibility 10 miles    
Events Rain    
Averages and records for this station are not official NWS values.
T = Trace of Precipitation, MM = Missing Value Source: NWS Daily Summary

Daily Weather History Graph

Daily Weather History Graph

Search for Another Location

Airport or City:

Astronomy

Oct. 21, 2019 Rise Set
Actual Time 7:09 AM CDT 6:02 PM CDT
Civil Twilight 6:41 AM CDT 6:30 PM CDT
Nautical Twilight 6:09 AM CDT 7:02 PM CDT
Astronomical Twilight 5:37 AM CDT 7:33 PM CDT
Moon No Moon Rise 2:28 PM CDT (10/21)
Length of Visible Light 11h 48m
Length of Day
10h 52m
Waning Gibbous, 48% of the Moon is Illuminated
Oct 21
Waning Gibbous
Oct 27
New
Nov 4
First Quarter
Nov 12
Full
Nov 19
Last Quarter

Hourly Weather History & Observations

Time (CDT) Temp. Dew Point Humidity Pressure Visibility Wind Dir Wind Speed Gust Speed Precip Events Conditions
12:15 AM 51.1 °F 50.4 °F 97% 29.86 in 10.0 mi East 3.5 mph - N/A   Overcast
12:35 AM 51.8 °F 50.9 °F 97% 29.84 in 10.0 mi East 8.1 mph - N/A   Overcast
12:55 AM 52.5 °F 50.9 °F 94% 29.82 in 10.0 mi ESE 6.9 mph - N/A   Overcast
1:15 AM 53.1 °F 50.9 °F 92% 29.81 in 10.0 mi East 4.6 mph - N/A   Overcast
1:35 AM 54.5 °F 50.9 °F 88% 29.82 in 10.0 mi ESE 5.8 mph - N/A   Overcast
1:55 AM 54.5 °F 51.1 °F 88% 29.82 in 10.0 mi ESE 6.9 mph - N/A   Overcast
2:15 AM 55.0 °F 51.1 °F 86% 29.81 in 10.0 mi ESE 8.1 mph - N/A   Overcast
2:35 AM 55.0 °F 51.3 °F 87% 29.81 in 10.0 mi ESE 6.9 mph - N/A   Overcast
2:55 AM 55.4 °F 51.1 °F 85% 29.79 in 10.0 mi ESE 8.1 mph - N/A   Overcast
3:15 AM 56.3 °F 50.7 °F 82% 29.79 in 10.0 mi SE 10.4 mph - N/A   Overcast
3:35 AM 56.3 °F 50.4 °F 80% 29.77 in 10.0 mi ESE 10.4 mph - N/A   Overcast
3:55 AM 56.8 °F 50.0 °F 78% 29.75 in 10.0 mi SE 9.2 mph - N/A   Overcast
4:15 AM 57.2 °F 50.0 °F 77% 29.74 in 10.0 mi SE 11.5 mph 17.3 mph N/A   Overcast
4:35 AM 57.2 °F 49.1 °F 74% 29.74 in 10.0 mi SE 10.4 mph - N/A   Overcast
4:55 AM 57.2 °F 49.1 °F 74% 29.72 in 10.0 mi SE 11.5 mph - N/A   Mostly Cloudy
5:15 AM 57.4 °F 49.5 °F 75% 29.70 in 10.0 mi SE 12.7 mph - N/A   Overcast
5:35 AM 56.8 °F 49.8 °F 77% 29.70 in 10.0 mi SE 12.7 mph - N/A   Mostly Cloudy
5:55 AM 56.7 °F 50.0 °F 78% 29.67 in 10.0 mi SE 12.7 mph - N/A   Scattered Clouds
6:15 AM 57.2 °F 50.4 °F 78% 29.65 in 10.0 mi ESE 11.5 mph - N/A   Clear
6:35 AM 57.2 °F 51.1 °F 80% 29.66 in 10.0 mi SE 12.7 mph - N/A   Scattered Clouds
6:55 AM 58.5 °F 51.8 °F 79% 29.66 in 10.0 mi SE 15.0 mph - N/A   Mostly Cloudy
7:15 AM 59.0 °F 52.0 °F 78% 29.62 in 10.0 mi SE 18.4 mph 24.2 mph N/A   Mostly Cloudy
7:35 AM 58.8 °F 52.7 °F 80% 29.61 in 10.0 mi SE 16.1 mph 21.9 mph N/A Rain Light Rain
7:55 AM 58.3 °F 53.2 °F 83% 29.58 in 10.0 mi SE 19.6 mph 26.5 mph 0.01 in Rain Light Rain
8:15 AM 58.3 °F 54.0 °F 86% 29.56 in 10.0 mi SE 21.9 mph 32.2 mph 0.01 in Rain Light Rain
8:35 AM 58.6 °F 55.4 °F 89% 29.52 in 10.0 mi SE 27.6 mph 36.8 mph 0.01 in   Drizzle
8:55 AM 58.5 °F 56.5 °F 93% 29.47 in 10.0 mi SE 29.9 mph 44.9 mph 0.01 in   Drizzle
9:15 AM 59.4 °F 57.6 °F 94% 29.44 in 10.0 mi SE 33.4 mph 51.8 mph 0.01 in   Drizzle
9:35 AM 59.5 °F 57.7 °F 94% 29.49 in 10.0 mi SSE 26.5 mph 40.3 mph 0.01 in   Mostly Cloudy
9:55 AM 59.7 °F 57.7 °F 93% 29.50 in 10.0 mi SSE 27.6 mph 36.8 mph 0.01 in   Overcast
10:15 AM 59.7 °F 57.7 °F 93% 29.51 in 10.0 mi SSE 16.1 mph 33.4 mph N/A   Overcast
10:55 AM 60.8 °F 58.5 °F 92% 29.50 in 10.0 mi SSE 20.7 mph 27.6 mph N/A   Overcast
11:15 AM 61.2 °F 58.5 °F 91% 29.52 in 10.0 mi SSE 16.1 mph 25.3 mph N/A   Overcast
11:35 AM 61.7 °F 58.3 °F 89% 29.52 in 10.0 mi SSE 16.1 mph 20.7 mph N/A   Overcast
11:55 AM 61.9 °F 58.1 °F 87% 29.51 in 10.0 mi SSE 15.0 mph 23.0 mph N/A   Overcast
12:15 PM 62.2 °F 58.3 °F 87% 29.51 in 10.0 mi South 17.3 mph 24.2 mph N/A   Overcast
12:35 PM 62.2 °F 58.3 °F 87% 29.50 in 10.0 mi South 13.8 mph 19.6 mph N/A   Overcast
12:55 PM 62.6 °F 58.3 °F 86% 29.51 in 10.0 mi SSW 12.7 mph 21.9 mph N/A   Overcast
1:15 PM 62.1 °F 59.2 °F 90% 29.50 in 10.0 mi South 18.4 mph 26.5 mph N/A Rain Rain
1:35 PM 63.1 °F 60.3 °F 90% 29.50 in 10.0 mi South 16.1 mph 25.3 mph N/A   Overcast
1:55 PM 63.9 °F 59.4 °F 85% 29.50 in 10.0 mi SSW 19.6 mph 28.8 mph N/A   Overcast
2:15 PM 64.4 °F 59.0 °F 83% 29.50 in 10.0 mi SSW 19.6 mph 27.6 mph N/A   Overcast
2:35 PM 66.0 °F 58.8 °F 78% 29.49 in 10.0 mi SSW 17.3 mph 28.8 mph N/A   Mostly Cloudy
2:55 PM 66.9 °F 58.1 °F 73% 29.49 in 10.0 mi SSW 20.7 mph 28.8 mph N/A   Mostly Cloudy
3:15 PM 67.1 °F 56.7 °F 69% 29.49 in 10.0 mi SSW 19.6 mph 29.9 mph N/A   Scattered Clouds
3:35 PM 67.1 °F 55.9 °F 67% 29.48 in 10.0 mi SSW 12.7 mph 29.9 mph N/A   Scattered Clouds
3:55 PM 66.6 °F 54.7 °F 66% 29.49 in 10.0 mi SW 15.0 mph 26.5 mph N/A   Mostly Cloudy
4:15 PM 67.5 °F 53.6 °F 61% 29.49 in 10.0 mi SSW 18.4 mph 27.6 mph N/A   Scattered Clouds
4:35 PM 67.8 °F 55.2 °F 64% 29.50 in 10.0 mi SW 15.0 mph 21.9 mph N/A   Mostly Cloudy
4:55 PM 66.7 °F 47.3 °F 50% 29.51 in 10.0 mi WSW 19.6 mph 29.9 mph N/A   Mostly Cloudy
5:15 PM 64.6 °F 44.6 °F 48% 29.52 in 10.0 mi WSW 24.2 mph 31.1 mph N/A   Clear
5:35 PM 62.6 °F 43.5 °F 50% 29.54 in 10.0 mi WSW 23.0 mph 28.8 mph N/A   Clear
6:15 PM 59.9 °F 41.7 °F 51% 29.56 in 10.0 mi WSW 15.0 mph - N/A   Clear
6:35 PM 58.5 °F 41.9 °F 54% 29.57 in 10.0 mi WSW 17.3 mph 21.9 mph N/A   Clear
6:55 PM 58.1 °F 41.7 °F 54% 29.59 in 10.0 mi West 18.4 mph 26.5 mph N/A   Clear
7:15 PM 56.8 °F 41.0 °F 55% 29.61 in 10.0 mi WSW 18.4 mph 26.5 mph N/A   Clear
7:35 PM 55.9 °F 41.0 °F 57% 29.62 in 10.0 mi West 21.9 mph 29.9 mph N/A   Scattered Clouds
7:55 PM 55.0 °F 41.0 °F 59% 29.63 in 10.0 mi WSW 17.3 mph 24.2 mph N/A   Scattered Clouds
8:15 PM 55.2 °F 40.1 °F 57% 29.63 in 10.0 mi WSW 21.9 mph 27.6 mph N/A   Clear
8:35 PM 54.3 °F 39.2 °F 57% 29.64 in 10.0 mi WSW 15.0 mph 20.7 mph N/A   Scattered Clouds
8:55 PM 53.2 °F 38.8 °F 58% 29.64 in 10.0 mi SW 15.0 mph - N/A   Clear
9:15 PM 52.7 °F 38.5 °F 58% 29.64 in 10.0 mi WSW 18.4 mph 25.3 mph N/A   Scattered Clouds
9:35 PM 53.6 °F 37.8 °F 55% 29.64 in 10.0 mi SW 15.0 mph - N/A   Mostly Cloudy
9:55 PM 53.2 °F 37.6 °F 55% 29.64 in 10.0 mi SW 13.8 mph 19.6 mph N/A   Scattered Clouds
10:15 PM 52.7 °F 37.8 °F 57% 29.64 in 10.0 mi SW 11.5 mph 17.3 mph N/A   Clear
10:55 PM 51.8 °F 38.3 °F 60% 29.63 in 10.0 mi SW 10.4 mph - N/A   Clear
11:15 PM 51.8 °F 38.5 °F 60% 29.62 in 10.0 mi SW 11.5 mph 18.4 mph N/A   Clear
11:35 PM 50.7 °F 38.7 °F 63% 29.62 in 10.0 mi SSW 8.1 mph - N/A   Clear
11:55 PM 50.0 °F 39.0 °F 66% 29.62 in 10.0 mi SSW 10.4 mph - N/A   Clear